Weather Roundup
Issued by NWS

Home | Current Version | Previous Version | Graphics & Text | Print | Product List | Glossary Off
Versions: 1 2 3 4 5 6 7 8 9 10 11 12 13 14 15 16 17 18 19 20 21 22 23 24 25 26 27 28 29 30 31 32 33 34 35 36 37 38 39 40 41 42 43 44 45 46 47 48 49 50

000
NZUS93 KARX 300259
HRRWXR

CURRENT HOURLY OBSERVATIONS ACROSS
MUCH OF THE UPPER MISSISSIPPI VALLEY
NATIONAL WEATHER SERVICE LA CROSSE WI
1000 PM CDT SAT APR 29 2017


...SOUTHEAST MINNESOTA...


CITY           SKY/WX    TMP DP  RH WIND       PRES   REMARKS
ROCHESTER      CLOUDY    45  31  58 NE13      30.14R
ROCHESTER/MAYO CLOUDY    47  30  51 NE9G16    30.15S
WINONA         CLOUDY    48  32  53 E8        30.17R
AUSTIN         CLOUDY    46  30  53 NE12      30.11F
ALBERT LEA     CLOUDY    46  30  53 NE10      30.12F
DODGE CENTER   CLOUDY    46  30  53 NE10      30.14F
PRESTON        CLOUDY    44  29  53 NE12G18   30.12F
OWATONNA       CLOUDY    46  30  53 NE7       30.15F
FARIBAULT      CLOUDY    50  28  43 NE8       30.16F
$$

...ELSEWHERE IN MINNESOTA...


CITY           SKY/WX    TMP DP  RH WIND       PRES   REMARKS
MINNEAPOLIS    CLOUDY    51  23  33 NE17      30.20R
INTNL FALLS    CLEAR     34  22  61 CALM      30.26R
DULUTH         CLOUDY    38  16  40 E10       30.30R WCI  31
RED WING       CLOUDY    52  23  32 E6        30.17S
REDWOOD FALLS  CLOUDY    50  23  34 NE6       30.17F
MANKATO        CLOUDY    49  30  48 NE8       30.17R
WORTHINGTON    CLOUDY    45  26  47 NE14      30.14F
FAIRMONT       CLOUDY    47  31  53 NE10      30.14F
$$

...SOUTHWEST WISCONSIN...


CITY           SKY/WX    TMP DP  RH WIND       PRES   REMARKS
LA CROSSE      CLOUDY    49  30  48 E12       30.15S
PRAIRIE DU CHI CLOUDY    43  31  63 NE7       30.09F
BOSCOBEL       CLOUDY    44  30  57 NE13G23   30.10F
LONE ROCK      NOT AVBL
PLATTEVILLE    CLOUDY    40  36  86 NE18G26   30.04F WCI  30
FORT MC COY    CLOUDY    46  31  57 E12G20    30.16S
MAUSTON-NEW LI CLOUDY    45  30  57 NE10G16   30.15R
VIROQUA        CLOUDY    43  28  55 E17G26    30.11S
WIS DELLS      CLOUDY    42  27  55 E17G26    30.13S
$$

...ELSEWHERE IN WISCONSIN...


CITY           SKY/WX    TMP DP  RH WIND       PRES   REMARKS
MILWAUKEE      LGT RAIN  41  39  93 NE23G32   30.08F
MADISON        DRIZZLE   38  34  85 NE15      30.10F WCI  29
GREEN BAY      CLOUDY    45  30  55 NE20      30.22S
EAU CLAIRE     NOT AVBL
BLACK RVR FLS  CLOUDY    47  29  50 E8        30.18S
MEDFORD        CLOUDY    44  26  48 E7        30.20R
WAUSAU         CLOUDY    44  29  55 E9        30.21S
WIS RAPIDS     CLOUDY    45  27  49 E10G23    30.20R
MARSHFIELD     CLOUDY    43  30  60 E12       30.19R
RICE LAKE      CLOUDY    45  25  46 NE12      30.25R
$$

...NORTHEAST IOWA...


CITY           SKY/WX    TMP DP  RH WIND       PRES   REMARKS
WATERLOO       CLOUDY    42  33  70 NE17      30.06S
DUBUQUE        CLOUDY    40  34  79 NE17G28   30.02F WCI  31
DECORAH        CLOUDY    45  27  49 NE17G31   30.08F
MASON CITY     CLOUDY    45  30  55 NE15      30.09F
CHARLES CITY   CLOUDY    45  30  57 NE13G18   30.10S
OELWEIN        CLOUDY    41  36  81 NE18G28   30.05S
$$

...ELSEWHERE IN IOWA...


CITY           SKY/WX    TMP DP  RH WIND       PRES   REMARKS
DES MOINES     LGT RAIN  41  39  93 NE16      30.01R FOG
IOWA CITY      CLOUDY    44  37  76 NE10G29   30.03R
FORT DODGE     CLOUDY    45  30  57 NE14      30.08R
MARSHALLTOWN   CLOUDY    41  36  82 NE18      30.02F
CEDAR RAPIDS   LGT RAIN  41  38  89 NE14      30.01R
$$

...NORTHERN ILLINOIS...


CITY           SKY/WX    TMP DP  RH WIND       PRES   REMARKS
CHICAGO-OHARE  HVY RAIN  44  42  93 NE24G35   29.98F FOG
CHICAGO-MIDWAY LGT RAIN  46  44  93 NE29G38   30.00R FOG
MOLINE         LGT RAIN  42  38  85 NE17      29.98S FOG
ROCKFORD       CLOUDY    43  38  82 NE18      30.02R
PEORIA         CLOUDY    45  43  93 E17G25    29.94S
$$

NOTE: "FAIR" INDICATES FEW OR NO CLOUDS BELOW 12,000 FEET WITH NO
SIGNIFICANT WEATHER AND/OR OBSTRUCTIONS TO VISIBILITY. WIND
SPEEDS ARE IN MILES-PER-HOUR.




USA.gov is the U.S. government's official web portal to all federal, state and local government web resources and services.